Weather History for Sitka, AK

Change the Weather History Date:

Thursday, March 20, 2014

  Actual Average Record
Temperature  
Mean Temperature 34 °F -  
Max Temperature 42 °F 43 °F 54 °F (1960)
Min Temperature 28 °F 33 °F 19 °F (2001)
Degree Days  
Heating Degree Days 30    
Moisture  
Dew Point 31 °F    
Average Humidity 85    
Maximum Humidity 96    
Minimum Humidity 67    
Precipitation  
Precipitation 0.00 in - - ()
Sea Level Pressure  
Sea Level Pressure 30.26 in    
Wind  
Wind Speed 3 mph (SSW)    
Max Wind Speed 9 mph    
Max Gust Speed -    
Visibility 10 miles    
Events      
Averages and records for this station are not official NWS values.
T = Trace of Precipitation, MM = Missing Value Source: NWS Daily Summary

Daily Weather History Graph

Daily Weather History Graph

Search for Another Location

Airport:

Trip Planner

Search our weather history database for the weather conditions in past years. The results will help you decide how hot, cold, wet, or windy it might be!

Date:

Astronomy

Mar. 20, 2014 Rise Set
Actual Time 7:02 AM AKDT 7:15 PM AKDT
Civil Twilight 6:24 AM AKDT 7:54 PM AKDT
Nautical Twilight 5:39 AM AKDT 8:39 PM AKDT
Astronomical Twilight 4:50 AM AKDT 9:28 PM AKDT
Moon No Moon Rise 8:27 AM AKDT (3/20)
Length of Visible Light 13h 29m
Length of Day
12h 12m
Waning Gibbous, 83% of the Moon is Illuminated
Mar 20
Waning Gibbous
Mar 23
Last Quarter
Mar 30
New
Apr 7
First Quarter
Apr 14
Full

Hourly Weather History & Observations

Time (AKDT) Temp. Windchill Dew Point Humidity Pressure Visibility Wind Dir Wind Speed Gust Speed Precip Events Conditions
12:53 AM 32.0 °F 28.7 °F 30.0 °F 92% 30.12 in 10.0 mi East 3.5 mph - N/A   Clear
1:53 AM 30.9 °F 26.2 °F 28.9 °F 92% 30.13 in 10.0 mi East 4.6 mph - N/A   Clear
2:53 AM 30.0 °F - 28.0 °F 92% 30.14 in 10.0 mi Calm Calm - N/A   Clear
3:53 AM 30.0 °F - 28.0 °F 92% 30.15 in 10.0 mi Calm Calm - N/A   Clear
4:53 AM 30.0 °F - 28.9 °F 96% 30.17 in 10.0 mi Calm Calm - N/A   Clear
6:15 AM 30.2 °F - 28.4 °F 93% 30.19 in 10.0 mi Calm Calm - N/A   Clear
6:53 AM 28.9 °F - 28.0 °F 96% 30.20 in 10.0 mi Calm Calm - N/A   Clear
8:39 AM 33.8 °F - 30.2 °F 87% 30.22 in 30.0 mi Calm Calm - N/A   Clear
8:53 AM 34.0 °F - 32.0 °F 92% 30.23 in 10.0 mi Calm Calm - N/A   Partly Cloudy
9:53 AM 36.0 °F - 32.0 °F 86% 30.24 in 10.0 mi Calm Calm - N/A   Partly Cloudy
10:53 AM 37.0 °F - 32.0 °F 82% 30.25 in 10.0 mi Calm Calm - N/A   Partly Cloudy
11:53 AM 37.0 °F 33.3 °F 30.9 °F 79% 30.27 in 10.0 mi NW 4.6 mph - N/A   Scattered Clouds
12:53 PM 39.9 °F 37.8 °F 30.0 °F 68% 30.28 in 10.0 mi West 3.5 mph - N/A   Scattered Clouds
1:53 PM 41.0 °F 39.0 °F 30.9 °F 67% 30.29 in 10.0 mi West 3.5 mph - N/A   Scattered Clouds
2:53 PM 39.9 °F 35.8 °F 32.0 °F 73% 30.29 in 10.0 mi SW 5.8 mph - N/A   Partly Cloudy
3:53 PM 41.0 °F 37.1 °F 33.1 °F 73% 30.30 in 10.0 mi SW 5.8 mph - N/A   Mostly Cloudy
4:53 PM 39.9 °F - 30.9 °F 70% 30.30 in 10.0 mi Calm Calm - N/A   Overcast
5:53 PM 39.9 °F 35.1 °F 32.0 °F 73% 30.31 in 10.0 mi SW 6.9 mph - N/A   Mostly Cloudy
6:53 PM 37.9 °F 31.5 °F 33.1 °F 83% 30.31 in 10.0 mi SSW 9.2 mph - N/A   Mostly Cloudy
7:09 PM 37.0 °F 30.4 °F 34.0 °F 89% 30.31 in 10.0 mi SSW 9.2 mph - N/A   Mostly Cloudy
7:30 PM 37.0 °F 32.4 °F 34.0 °F 89% 30.32 in 10.0 mi SW 5.8 mph - N/A   Overcast
7:53 PM 37.0 °F 33.3 °F 34.0 °F 89% 30.32 in 10.0 mi SW 4.6 mph - N/A   Overcast
8:53 PM 35.1 °F 32.2 °F 33.1 °F 92% 30.32 in 10.0 mi East 3.5 mph - N/A   Partly Cloudy
9:53 PM 33.1 °F - 30.9 °F 92% 30.33 in 10.0 mi Calm Calm - N/A   Clear
10:53 PM 33.1 °F - 30.0 °F 89% 30.33 in 10.0 mi Calm Calm - N/A   Clear
11:53 PM 33.1 °F 30.0 °F 30.0 °F 89% 30.33 in 10.0 mi ESE 3.5 mph - N/A   Clear